Location: Newark
(51.2625°N, 13.3939°E)
Time: 21:27:35
(UTC+00:00)

Explorer 7 - Pass Details

Date: 21 November 2019
Orbit: 485 x 680 km, 50.3° (Epoch: 14 December)

Event Time Altitude Azimuth Distance (km) Brightness Sun altitude
Rises 23:19:36 0° 242° (WSW) 2,954 - -58.3°
Reaches altitude 10° 23:22:01 10° 238° (WSW) 2,019 - -58.2°
Maximum altitude 23:26:33 56° 161° (SSE) 726 - -58.0°
Drops below altitude 10° 23:30:50 10° 83° (E) 1,905 - -57.9°
Sets 23:33:04 0° 79° (E) 2,771 - -57.7°
